Zurück zum Katalog

DELTA 1 DEB

AktivSSO
NORAD 10871·DEBRIS·🇺🇸 United States

Gestartet Jul 29, 1976 von Vandenberg Space Force Base

Loading…

Nächste Überflüge (nächste 24 Stunden)

TLE

AktuellSource: Space-Track

Epoche: Sep 14, 2026, 09:24 UTC

1 10871U 76077CZ  26257.39181476  .00000189  00000-0  15854-2 0  9998
2 10871 101.8968 233.0752 0275846 324.9571 193.1856 12.37716075258396

Verfolge DELTA 1 DEB in Echtzeit mit AllMySat

Download on the App Store